Lapse_Rate
6.5 6.5 6.5 6.6 6.7 6.7 6.8 6.8 6.8 6.7 6.7 6.6 6.5 6.4 6.4 6.3 6.2 6.2 6.0 6.2 6.5 6.7 6.9 7.4 7.7 8.0 7.9 8.1 8.0 8.0 8.2 8.9 8.4 7.9 7.2 6.5 6.3 6.5 5.9 5.5 5.5 5.5 5.4 5.6 5.9
6.5 6.4 6.5 6.5 6.7 6.6 6.7 6.8 6.9 6.8 6.7 6.7 6.6 6.4 6.3 6.2 6.1 6.2 6.2 6.2 6.5 6.7 7.1 7.5 7.8 8.3 8.3 8.4 8.4 7.9 9.4 8.6 8.2 7.7 7.4 6.8 6.5 6.2 5.9 5.7 5.6 5.4 5.5 5.7 5.9
6.4 6.4 6.4 6.5 6.6 6.6 6.7 6.7 6.9 6.9 6.8 6.6 6.6 6.5 6.3 6.2 6.2 6.1 6.0 6.2 6.4 6.6 7.4 8.0 8.3 8.6 8.5 8.6 8.5 8.4 8.7 8.3 8.1 7.8 7.3 6.9 6.7 6.4 6.2 6.2 5.9 5.6 5.6 5.9 6.0
6.3 6.5 6.5 6.6 6.7 6.8 6.8 6.9 6.9 7.0 6.9 6.7 6.5 6.4 6.3 6.3 6.4 6.3 6.1 6.3 6.3 6.9 7.6 8.2 8.6 8.7 8.9 8.8 8.6 8.5 8.6 8.7 8.4 7.8 7.6 7.4 7.2 7.0 7.3 7.1 6.9 6.3 5.7 6.0 6.3
6.3 6.4 6.5 6.6 6.8 6.9 6.9 6.9 7.0 7.0 7.0 6.8 6.6 6.4 6.4 6.2 6.3 6.3 6.3 6.3 6.5 7.3 7.9 8.4 8.6 9.0 9.1 8.8 8.7 8.6 8.9 8.9 8.5 8.0 8.0 7.5 7.3 7.6 7.6 7.4 7.1 6.5 6.2 5.9 6.0
6.3 6.4 6.5 6.5 6.7 6.8 6.9 6.9 6.9 7.0 7.0 6.9 6.7 6.6 6.5 6.2 6.4 6.2 6.3 6.4 6.9 7.5 8.0 8.5 8.8 9.1 9.2 9.0 8.8 8.9 9.0 8.9 8.5 8.1 7.9 7.8 7.9 7.5 7.5 7.3 7.0 6.6 6.3 6.2 6.0
6.3 6.4 6.5 6.6 6.6 6.8 6.9 6.8 6.9 7.0 7.0 7.0 6.8 6.7 6.4 6.4 6.5 6.3 6.3 6.6 6.9 7.5 7.9 8.5 8.8 8.9 9.3 9.0 9.1 8.8 8.9 8.6 8.2 7.9 8.1 8.0 7.7 7.8 7.8 7.3 7.2 6.8 6.6 6.4 6.4
6.3 6.4 6.5 6.6 6.6 6.8 6.9 6.9 6.9 7.0 7.0 7.0 6.8 6.7 6.4 6.7 6.8 6.6 6.4 6.7 7.1 7.5 7.9 8.4 8.7 9.0 9.0 9.1 9.1 8.9 9.1 9.4 8.4 8.2 8.5 8.5 8.6 8.0 8.0 7.6 7.4 6.8 7.1 6.9 6.7
6.1 6.3 6.4 6.5 6.5 6.7 6.9 6.8 6.9 6.9 7.0 7.0 6.8 6.6 6.4 6.9 6.9 6.8 6.6 6.7 7.0 7.6 8.0 8.5 8.8 8.8 9.1 9.4 9.5 9.2 9.4 9.3 8.5 8.4 8.2 8.3 8.5 8.3 7.9 7.8 7.4 7.0 6.9 6.9 6.5
6.0 6.1 6.3 6.3 6.4 6.6 6.8 6.7 6.8 6.8 6.9 6.9 6.8 6.5 6.8 6.8 6.9 6.9 6.8 6.8 6.9 7.4 8.0 8.5 8.9 9.4 9.5 9.5 9.6 9.6 9.6 9.3 9.4 8.5 8.5 8.6 8.6 8.5 8.4 7.6 7.3 7.6 7.3 7.4 7.1
5.9 6.1 6.2 6.3 6.4 6.5 6.6 6.5 6.6 6.6 6.7 6.5 6.4 6.6 6.9 6.9 6.9 6.8 6.9 6.9 7.0 7.4 8.2 8.5 9.4 9.5 9.3 9.1 8.9 9.0 9.2 9.2 9.0 9.1 8.8 8.8 8.6 8.0 8.4 7.6 7.2 8.1 7.6 7.6 7.4
6.0 6.1 6.3 6.3 6.5 6.6 6.5 6.5 6.4 6.4 6.4 6.7 6.9 6.8 6.9 6.8 6.8 6.8 7.0 6.9 7.0 7.6 8.2 8.7 9.1 8.9 9.0 9.0 9.1 9.2 9.6 9.4 9.0 9.2 8.8 8.5 8.6 8.1 8.4 8.0 7.3 7.9 8.0 7.6 7.7
6.0 6.1 6.3 6.4 6.5 6.6 6.5 6.4 6.4 6.4 6.5 6.5 6.9 6.9 6.9 7.0 6.9 6.8 7.1 7.0 7.3 7.8 8.0 9.4 9.4 8.9 9.1 9.2 9.5 9.6 9.6 9.3 9.2 9.0 8.8 8.4 8.7 8.4 8.5 8.3 8.1 7.9 7.9 7.6 7.6
6.0 6.1 6.2 6.3 6.5 6.6 6.5 6.4 6.3 6.4 6.4 6.6 6.9 6.8 6.8 6.8 6.9 6.8 7.1 7.0 7.1 7.9 8.2 8.9 9.2 8.6 9.0 9.3 9.3 9.6 9.3 9.3 8.7 8.8 9.6 9.0 9.7 8.9 8.1 7.9 8.2 8.1 7.7 7.7 7.8
6.0 6.1 6.2 6.3 6.4 6.5 6.4 6.4 6.3 6.6 8.1 6.9 6.5 6.9 6.5 7.0 7.3 7.1 7.1 7.0 7.4 7.7 7.9 8.3 8.6 8.2 8.7 9.4 9.2 9.5 9.1 9.1 8.9 9.3 9.2 9.0 9.3 9.0 8.9 7.6 7.2 7.9 7.7 7.9 8.0
6.0 6.2 6.2 6.4 6.5 6.5 6.4 6.3 6.4 6.7 7.9 6.7 6.4 6.6 6.7 6.9 7.1 7.0 7.2 7.0 7.4 7.5 7.4 8.1 8.2 8.2 8.5 9.2 9.0 9.2 8.9 8.9 9.1 9.5 9.7 9.4 9.1 9.7 9.2 8.3 8.3 7.8 7.6 8.0 8.0
6.0 6.2 6.3 6.5 6.6 6.5 6.4 6.3 6.5 7.6 7.1 6.9 6.9 6.7 7.1 7.1 7.1 7.1 7.0 7.0 7.3 7.4 7.6 7.8 7.5 8.1 8.1 9.1 8.9 9.1 9.4 9.6 9.7 9.8 9.9 8.8 8.9 9.7 8.7 7.7 8.0 7.5 7.4 7.8 7.6
6.1 6.2 6.4 6.5 6.6 6.6 6.4 6.0 7.1 7.2 7.4 6.9 7.1 7.1 7.2 7.3 7.4 7.4 7.4 7.5 7.4 7.7 8.5 8.1 8.2 8.3 8.5 9.0 9.6 9.3 9.6 9.7 9.5 9.9 9.9 8.4 9.6 9.4 8.8 8.5 7.9 7.4 7.2 7.6 7.7
6.4 6.6 6.7 6.8 6.7 6.6 6.5 6.8 7.6 7.1 6.9 7.1 7.1 7.4 7.5 7.4 7.5 7.4 7.5 7.7 7.5 7.6 8.3 8.4 9.4 9.1 8.7 9.2 9.4 9.5 9.5 9.6 9.7 9.7 9.8 9.7 9.4 9.1 8.5 8.4 8.1 7.4 7.3 7.3 7.7
6.5 6.6 6.8 6.9 6.8 6.7 6.4 7.2 7.0 6.7 6.9 7.0 7.8 7.9 7.9 7.7 7.5 7.4 7.6 7.7 7.6 7.6 8.0 8.6 9.6 9.1 8.9 9.3 9.5 9.4 9.3 9.7 9.6 9.8 9.6 9.7 9.3 9.6 8.4 7.2 8.2 7.6 7.6 7.2 7.4
6.5 6.4 6.8 6.8 6.7 6.5 6.9 7.3 6.8 6.9 7.3 7.1 7.7 8.1 8.2 8.1 7.9 7.8 7.9 7.7 7.6 7.6 7.7 8.3 9.4 8.9 9.1 9.4 9.7 9.2 9.2 9.3 9.6 9.6 9.8 9.9 9.8 9.2 8.9 7.8 7.7 7.0 7.3 7.3 7.4
6.5 6.1 6.8 6.9 6.6 6.4 7.1 6.8 6.7 7.1 7.2 7.2 7.4 7.6 8.0 8.3 8.1 8.1 8.2 8.0 7.7 7.8 7.4 8.2 9.5 9.5 9.6 9.2 9.3 9.0 9.4 9.6 9.6 9.6 9.5 9.5 9.6 9.2 8.7 8.2 7.1 6.3 7.2 7.1 7.0
6.5 6.5 6.7 6.9 7.1 7.0 6.8 6.9 7.2 7.0 7.3 7.7 7.8 7.8 7.9 8.1 8.3 8.2 8.3 7.9 7.8 7.9 8.1 8.3 8.9 9.6 9.5 9.0 9.2 9.0 9.1 9.4 9.6 9.6 9.7 9.7 9.5 9.0 8.6 8.1 7.0 6.9 7.2 7.3 7.2
6.6 6.4 6.7 7.0 7.0 6.8 6.9 7.2 7.2 7.3 7.8 7.9 7.9 8.0 8.1 8.1 8.3 8.3 8.2 8.2 8.1 7.9 8.1 8.5 9.3 9.5 9.7 9.7 9.6 9.4 9.2 9.1 9.6 9.6 9.6 9.6 9.4 9.2 8.1 8.0 7.4 7.0 7.1 7.2 7.2
6.7 6.6 7.0 7.1 6.8 6.7 6.9 6.7 7.2 7.5 8.0 8.4 8.2 8.2 8.5 8.7 8.5 8.5 8.7 8.5 8.5 8.4 8.4 8.4 9.3 9.4 9.6 9.1 9.3 9.5 9.5 9.1 9.1 9.6 9.5 9.6 9.0 8.9 8.2 8.1 7.9 7.5 7.3 7.3 7.3
6.8 6.8 7.1 7.1 7.1 7.0 6.8 7.1 7.0 7.4 8.2 8.3 8.1 8.2 8.3 8.7 9.1 8.9 8.8 8.6 8.4 8.8 8.5 8.5 9.0 8.9 9.3 8.9 8.8 9.1 9.2 9.2 9.1 9.1 8.9 9.0 8.9 8.5 8.5 8.4 8.2 8.0 7.6 7.4 7.4
6.8 6.9 6.9 6.9 7.1 7.0 7.1 6.8 7.0 7.9 8.2 8.3 8.6 8.8 8.5 8.5 8.9 8.9 8.9 9.0 8.9 9.0 8.8 8.5 8.8 8.5 9.4 8.9 8.8 8.9 9.3 9.1 9.2 9.0 9.1 9.3 9.2 8.5 8.7 8.6 8.5 8.4 7.8 7.4 7.3
Wind_Speed
18 19 19 19 19 19 18 19 19 19 18 17 16 14 13 14 17 6 6 2 2 5 6 3 6 4 4 3 2 1 2 8 10 8 7 6 4 6 3 10 8 5 8 17 18
18 18 19 19 19 19 19 18 19 18 18 17 16 13 12 11 7 8 4 1 6 8 6 6 5 3 4 3 2 3 4 9 6 7 8 6 7 6 5 8 9 13 17 18 18
19 19 19 20 20 19 19 18 19 19 18 17 15 12 11 11 6 5 4 6 5 7 6 4 4 6 4 3 3 3 5 4 6 10 9 9 8 5 4 5 8 15 17 17 17
20 20 20 20 21 20 20 19 19 19 19 17 15 12 10 6 6 5 5 9 10 9 7 4 5 5 3 3 2 2 5 4 8 8 9 10 7 11 12 9 11 18 18 16 15
20 20 21 21 22 22 21 20 20 20 18 16 13 10 7 6 6 5 9 10 10 8 6 2 2 2 2 3 4 1 4 5 9 9 10 9 8 11 13 13 15 18 16 15 13
20 20 21 22 23 23 22 21 20 19 18 15 11 10 6 5 2 2 12 10 8 7 2 2 4 3 4 2 4 5 9 11 9 10 9 11 11 4 11 13 15 15 14 13 12
21 22 23 23 24 24 23 22 21 19 16 11 8 5 6 7 3 5 11 8 4 6 1 3 3 5 1 7 6 10 11 10 7 8 6 10 6 12 14 15 15 15 14 13 12
22 23 24 24 25 25 25 23 21 16 9 5 6 5 1 4 1 4 9 8 6 5 3 2 3 1 3 6 7 6 8 7 7 8 7 6 9 11 12 13 14 13 11 10 11
22 23 24 25 25 25 26 26 20 9 3 4 5 5 7 4 6 5 9 8 9 6 3 3 4 2 7 11 8 6 2 1 6 7 5 8 6 11 12 11 11 11 10 9 9
23 24 25 26 25 26 28 24 2 6 5 5 5 5 5 5 4 5 8 7 8 9 6 5 4 7 7 9 5 5 3 3 6 7 8 7 3 10 12 11 10 9 8 7 6
24 25 26 27 27 24 15 4 5 5 7 7 3 2 5 4 3 8 9 11 9 11 12 5 10 6 7 7 6 2 3 6 1 2 6 7 4 9 10 11 11 9 7 7 7
24 26 27 29 28 24 6 4 5 5 6 8 9 6 5 1 8 11 9 12 12 14 13 7 15 9 2 1 3 3 8 2 2 3 7 2 7 7 9 10 10 10 8 8 7
26 24 26 31 32 7 5 1 2 6 6 6 6 7 8 10 9 15 16 13 16 18 15 19 10 11 2 5 7 5 6 0 5 5 5 4 13 10 8 7 8 8 8 7 6
25 24 24 34 8 4 2 2 7 5 5 10 8 8 9 8 10 9 16 13 8 17 18 18 10 8 9 11 6 9 5 4 5 8 1 5 6 11 12 9 10 10 10 8 8
24 24 20 12 10 3 4 5 4 4 5 7 7 4 13 13 16 10 9 10 16 15 9 17 13 12 15 14 3 5 5 3 6 6 6 10 7 7 10 9 9 7 8 7 6
27 25 21 4 4 5 5 6 4 6 4 7 7 13 16 14 7 12 13 8 4 10 14 19 3 9 14 4 5 3 3 5 6 4 9 6 6 9 5 8 9 8 10 9 8
31 28 9 3 2 3 4 4 6 7 3 8 10 16 19 14 11 17 15 16 12 13 12 14 14 11 9 12 6 9 12 8 7 7 5 5 6 8 11 13 12 10 11 9 10
34 26 9 4 3 5 5 7 7 2 3 3 5 16 17 17 14 10 14 16 17 14 10 11 17 19 14 16 11 15 15 10 5 8 3 5 6 6 11 12 11 8 7 8 10
33 3 3 2 4 5 7 10 2 3 2 1 8 13 16 14 8 12 16 15 16 14 10 13 11 18 8 8 10 10 10 7 11 7 9 4 4 12 13 13 12 12 12 13 12
5 3 4 2 6 6 8 11 2 2 5 3 9 14 15 17 13 13 13 13 13 18 14 7 10 12 9 9 4 8 4 7 8 5 7 4 4 5 12 14 15 14 15 14 13
4 4 4 4 4 6 10 8 5 6 5 4 2 8 10 17 18 15 12 5 17 17 16 9 11 10 9 10 5 5 10 9 6 5 8 8 3 6 5 13 17 16 15 16 16
4 3 4 4 6 3 9 4 2 9 6 7 6 9 7 13 16 13 11 4 14 16 16 16 8 11 13 7 3 8 10 12 9 9 5 7 8 4 4 7 16 16 16 15 14
4 2 4 4 5 7 4 9 6 9 8 5 6 5 6 9 11 13 11 7 11 16 14 10 8 10 10 8 5 8 10 10 7 7 5 7 5 4 6 8 14 18 17 16 16
4 4 4 4 2 5 3 6 7 6 10 8 9 6 6 8 11 12 9 6 9 11 7 9 15 15 12 10 4 7 8 10 12 9 1 7 8 1 6 9 14 17 18 18 16
2 3 4 3 6 5 4 3 6 5 5 6 6 12 10 8 11 8 12 10 7 6 7 9 12 14 16 2 4 10 7 10 12 11 8 10 9 8 1 10 14 16 18 18 17
4 4 1 4 3 6 5 2 5 3 4 6 8 4 9 9 9 13 13 10 8 9 12 13 7 9 13 8 10 11 10 12 14 9 9 11 12 3 2 7 15 17 18 18 17
2 1 4 3 2 5 1 3 4 8 3 6 7 9 8 1 4 2 3 5 8 11 12 12 7 7 13 8 9 11 15 15 14 10 10 10 5 4 3 8 14 18 19 19 18
Wind_Direction
347 345 342 340 339 337 337 335 333 331 331 330 331 330 327 327 302 227 230 92 169 152 208 198 214 232 248 205 242 309 198 71 64 56 109 135 92 62 94 126 67 41 78 123 143
346 344 341 338 336 334 333 333 330 329 327 327 327 325 323 326 275 239 100 222 229 175 212 222 231 228 202 194 162 291 55 47 20 82 104 104 59 96 119 127 111 103 104 127 145
344 343 340 335 333 332 329 329 327 326 323 323 321 317 317 307 246 100 54 200 185 216 258 253 273 233 207 207 135 98 24 29 99 96 107 106 86 79 145 115 135 139 133 144 154
343 340 338 334 330 329 327 325 325 322 319 317 313 309 307 243 158 91 324 187 212 244 243 247 215 208 199 154 111 198 35 68 116 128 123 89 101 73 60 69 116 141 143 149 162
342 337 334 333 329 327 325 324 324 320 316 311 304 303 273 213 81 52 131 151 193 225 248 307 77 240 127 113 156 1 90 95 135 135 108 118 84 98 88 99 122 137 153 154 163
339 335 333 332 330 327 325 324 325 318 312 302 291 292 254 175 27 61 153 167 202 223 200 321 28 350 79 77 10 93 101 106 133 124 139 118 123 132 114 128 132 148 160 167 171
337 337 336 335 332 329 325 322 320 314 307 286 273 272 257 74 73 116 170 189 207 247 214 50 345 276 172 124 120 131 116 117 126 148 147 141 151 110 143 145 153 165 170 171 183
341 339 338 336 333 328 323 318 313 310 313 254 246 257 55 116 118 191 183 192 212 230 305 340 310 35 322 128 147 166 182 180 155 181 154 235 109 142 159 164 164 171 177 188 192
341 339 338 335 331 327 321 312 300 291 283 216 237 267 142 132 217 173 193 196 182 189 192 237 244 36 165 198 176 205 142 274 168 200 166 229 94 162 177 182 171 179 188 201 209
338 337 335 335 329 325 319 302 288 248 213 231 264 243 187 158 130 156 176 208 180 165 170 210 215 181 185 225 175 117 222 228 272 179 222 218 207 169 186 193 180 199 200 225 241
336 336 335 332 327 323 320 222 211 185 208 282 97 359 130 146 195 196 175 181 185 206 213 193 236 193 50 16 51 7 303 291 168 127 246 245 270 186 180 207 201 207 206 212 233
335 335 333 330 324 319 279 278 43 358 284 215 245 259 242 286 175 179 188 193 191 202 215 193 238 111 109 70 276 263 270 173 119 234 247 191 239 201 186 210 206 195 204 234 237
333 332 332 330 320 284 309 355 37 334 255 170 207 225 194 199 201 174 195 207 200 212 205 228 212 128 221 233 280 232 337 148 318 170 226 246 236 203 177 203 198 183 203 219 225
332 331 335 330 291 346 196 130 306 280 256 150 195 190 180 214 196 165 206 196 211 219 213 228 176 198 250 267 277 277 21 277 177 208 261 218 321 182 155 180 195 178 198 197 176
327 327 328 326 316 243 60 313 297 221 241 130 148 107 158 195 133 182 180 204 223 216 215 219 219 224 243 256 255 12 331 238 192 230 265 175 263 106 153 190 164 165 169 167 175
322 323 326 199 222 283 299 303 224 229 213 144 147 175 173 197 178 142 182 228 280 216 223 246 189 236 248 223 213 130 173 165 195 249 247 94 283 304 112 156 136 167 159 154 148
321 317 298 256 35 332 290 208 220 249 138 151 177 175 189 181 159 172 183 192 189 198 202 212 216 210 218 207 193 211 206 205 220 208 275 74 269 292 120 135 141 135 170 186 170
322 314 174 251 278 302 221 218 239 18 223 123 198 183 198 181 187 191 193 201 213 222 194 204 198 203 194 230 213 207 239 274 245 272 358 155 275 66 116 144 153 130 131 153 156
313 173 198 151 226 229 222 216 236 197 33 260 170 191 197 185 215 201 208 210 190 218 229 196 202 164 188 198 235 173 228 289 285 241 271 283 255 196 140 153 158 148 143 146 148
312 249 47 353 179 222 224 237 227 272 330 261 215 199 192 192 200 199 185 214 207 198 238 210 156 172 151 164 167 276 16 218 213 264 260 165 263 330 159 168 166 164 148 146 144
245 221 103 123 243 213 221 218 246 236 287 300 250 201 230 184 199 191 191 187 204 189 208 233 244 147 181 207 206 172 222 231 301 297 310 273 57 54 92 169 169 170 154 154 146
287 211 127 244 203 228 233 239 356 257 229 267 281 266 242 188 201 201 201 251 187 174 190 215 237 168 196 101 334 273 279 209 231 196 239 312 308 105 88 165 164 163 158 154 153
321 42 162 269 228 204 186 242 251 263 243 246 260 245 203 207 203 211 213 101 173 189 199 176 228 193 180 179 188 228 207 251 285 307 263 297 52 87 112 157 160 159 160 156 158
281 199 158 225 302 297 244 235 245 198 261 261 271 255 202 202 214 193 210 161 177 207 39 231 225 233 209 210 169 191 206 218 249 272 165 270 330 88 146 172 168 164 164 163 167
325 65 3 191 192 275 265 320 269 249 213 236 235 243 214 195 184 201 186 147 172 145 202 226 229 222 247 285 260 269 224 213 235 267 278 339 312 332 61 184 181 173 169 168 171
333 334 312 288 281 252 161 168 302 319 262 192 242 0 250 250 212 180 181 185 175 174 197 213 221 198 216 218 237 238 236 230 227 245 259 274 282 63 84 175 176 181 178 178 177
38 217 284 136 245 247 107 4 341 338 225 251 307 291 241 150 320 10 121 127 146 166 184 187 198 204 226 201 226 241 233 230 218 229 251 269 37 124 165 198 191 184 185 187 184